Location: B?jaj?g
(11.7167°N, 92.6667°E)
Time: 05:11:17
(UTC+00:00)

Cosmos 44 Rocket - Pass Details

Date: 18 September 2020
Orbit: 645 x 745 km, 65.1° (Epoch: 20 October)

Event Time Altitude Azimuth Distance (km) Brightness Sun altitude
Exits shadow 21:56:25 78° 116° (ESE) 663 3.1 -25.8°
Maximum altitude 21:56:26 78° 112° (ESE) 663 3.1 -25.8°
Drops below altitude 10° 22:01:05 10° 26° (NNE) 2,058 6.1 -24.6°
Sets 22:03:24 0° 25° (NNE) 2,982 7.0 -24.1°
